User: anonymous   Login
Location: Colonia Mina de C?rbuni
(46.1667°N, 22.7167°E)
Time: 18:40:06
(UTC+00:00)
Language:

S-56A Canister/Altair - Orbit

View from above orbital plane
View from above orbital plane
View from above satellite
View from above satellite

Ground track
Ground track

The orbit data is extracted from the following two-line orbital elements,

1 00082U 61004B   24113.16119923  .00001798  00000-0  15575-2 0  9994
2 00082  38.8558  37.0950 1164215  23.5703 341.4198 12.26674025980230
Epoch (UTC): 22 April 2024 03:52:07
Eccentricity: 0.1164215
inclination: 38.8558°
perigee height: 639 km
apogee height: 2488 km
right ascension of ascending node: 37.0950°
argument of perigee: 23.5703°
revolutions per day: 12.26674025
mean anomaly at epoch: 341.4198°
orbit number at epoch: 98023

The dashed part of the orbit path shows where the satellite is in the earth's shadow,  

DLR